Starlink 11507

operational
NORAD ID: 62519 Int'l Des: 2025-004 Owner: SPXS Country: US Constellation: starlink
LEOCIRCULAR

Starlink 11507について

説明を読み込み中...

リアルタイム位置

3D地球を読み込み中...

次回通過

高度履歴

Altitude vs Time

uPlot chart will show altitude changes over time

軌道要素

1 62519U 25004J 25308.15416677 .00289333 00000-0 21732-2 0 9994
2 62519 42.9986 107.5420 0001098 0.9697 359.1173 15.70922546 47462
Epoch: Nov 4, 2025 • Age: 15 hours

現在のステータス

高度 353.6 km
速度 7.70 km/s
衛星直下点 12.99°N, 148.08°E
打ち上げ日 Jan 8, 2025
運用期間 0.8 years
タイプ internet

技術仕様

分類 Payload
質量 960.00 kg
乾燥質量 910.00 kg
総質量 960.00 kg
長さ 0.30 m
直径 4.10 m
スパン 29.00 m
形状 Box + pan
製造者 SPXS
バスタイプ Starlink V2MD
フェーズステータス In Orbit
所有者/国 SPXS/US

大規模コンステレーション

Loading constellations...